Regional Weather Roundup
Issued by NWS

Home | Current Version | Previous Version | Graphics & Text | Print | Product List | Glossary On
Versions: 1 2 3 4 5 6 7 8 9 10 11 12 13 14 15 16 17 18 19 20 21 22 23 24 25 26 27 28 29 30 31 32 33 34 35 36 37 38 39 40 41 42 43 44 45 46 47 48 49 50
000
ASUS45 KSLC 190510
RWRUT

UTAH REGIONAL WEATHER ROUNDUP
NATIONAL WEATHER SERVICE SALT LAKE CITY UT
1000 PM MST SAT NOV 18 2017

UTZ001>011-023>025-190600-

NORTHERN UTAH

CITY           SKY/WX    TMP DP  RH WIND       PRES   REMARKS
BRIGHAM CITY   PTCLDY    30  26  83 CALM      30.37F
HILL AFB       PTCLDY    29  20  71 E14       30.35S WCI  18
LOGAN          PTCLDY    28  22  78 CALM      30.37S
OGDEN          PTCLDY    29  22  75 S8        30.35S WCI  21
SALT LAKE CITY PTCLDY    33  26  75 SW3       30.35F
TOOELE VALLEY  CLEAR     27  23  86 S6        30.36F WCI  20
WENDOVER       CLEAR     28  21  75 W3        30.36S
HEBER CITY       N/A     21  18  86 SE5       30.35S WCI  15
WEST JORDAN    CLEAR     29  24  79 SW5       30.36S WCI  24

$$

UTZ011>015-024>027-190600-

CENTRAL/NORTHEAST UTAH

CITY           SKY/WX    TMP DP  RH WIND       PRES   REMARKS
PROVO AIRPORT  PTCLDY    28  24  85 CALM      30.38S
MOAB/CANYONLAN CLEAR     25   2  37 W5        30.38S WCI  19
DELTA          PTCLDY    21  16  79 E6        30.35F WCI  14
PRICE          CLEAR     23   5  46 N8        30.37S WCI  14
RICHFIELD      CLEAR     23  23 100 CALM      30.38F
ROOSEVELT      CLOUDY    21  14  73 W5        30.41S WCI  15
VERNAL         CLOUDY    23  11  60 W6        30.39R WCI  16

$$

UTZ013>016-019>022-027-190600-

SOUTHERN UTAH

CITY           SKY/WX    TMP DP  RH WIND       PRES   REMARKS
BRYCE CANYON   CLEAR     11   7  84 CALM      30.36R
CEDAR CITY     PTCLDY    28  20  71 CALM      30.31S
MILFORD        CLEAR     21  14  74 NW6       30.34R WCI  13
ST GEORGE      PTCLDY    43  10  26 S5        30.30S
HANKSVILLE     CLEAR     27   3  36 CALM      30.43R
KANAB          CLEAR     34  10  37 NW14      30.36F WCI  24
BLANDING         N/A     24   8  50 N8        30.44R WCI  15

$$

REGIONAL REPORTS     COLORADO/ARIZONA

CITY           SKY/WX    TMP DP  RH WIND       PRES   REMARKS
CRAIG, CO      CLOUDY    13   8  81 CALM      30.38S
GRAND JUNCTION CLOUDY    27  18  69 E5        30.40R WCI  22
RIFLE, CO      CLOUDY    23  19  85 SW3       30.43R
MONTROSE, CO   CLOUDY    25  20  81 SE9       30.43R WCI  15
CORTEZ, CO     CLOUDY    18  10  71 NE5       30.39R WCI  11
COLORADO CITY    N/A     36   9  32 N3        30.34R
PAGE, AZ       PTCLDY    37   9  31 SE3       30.36R
GRAND CANYON   PTCLDY    24  -1  33 E7        30.33S WCI  16
KINGMAN, AZ    PTCLDY    37  11  34 E7        30.24R WCI  32
FLAGSTAFF, AZ  PTCLDY    18  -1  43 CALM      30.34R

$$

REGIONAL REPORTS    NEVADA/IDAHO/WYOMING

CITY           SKY/WX    TMP DP  RH WIND       PRES   REMARKS
LAS VEGAS, NV  PTCLDY    50  14  23 CALM      30.23F
ELY, NY        CLEAR     15   9  76 S10       30.30S WCI   2
ELKO, NV       CLEAR     24  19  81 CALM      30.28S
POCATELLO, ID  CLOUDY    28  21  75 NE5       30.33S WCI  23
BURLEY, ID     MOCLDY    29  23  78 N3        30.28F
FORT BRIDGER,    N/A     16   9  73 SW7       30.34F WCI   6
EVANSTON, WY   CLOUDY    19  16  88 CALM      30.31S
ROCK SPRINGS,  CLOUDY    19  10  68 S6        30.32S WCI  11

$$



USA.gov is the U.S. government's official web portal to all federal, state and local government web resources and services.